DW3701 Weather Reports


Display with metric or nautical units.
time (UTC)temp
F
wind
direction
speed
MPH
gust
MPH
rain 1hr
in
rain 24hr
in
rain mn
in
humidity
%
barometer
mb
20230208144013 41 330 5.0 11.0 0.00 0.09 0.03 58 1022.6
20230208143513 42 31 5.0 13.0 0.00 0.09 0.03 57 1022.6
20230208143009 42 321 5.0 13.0 0.00 0.09 0.03 58 1022.5
20230208142504 41 346 4.0 17.0 0.00 0.09 0.03 57 1022.3
20230208142003 41 265 7.0 17.0 0.00 0.09 0.03 56 1022.2
20230208141609 41 255 7.0 13.0 0.00 0.09 0.03 57 1022.2
20230208141059 41 298 4.0 9.0 0.00 0.09 0.03 58 1022.2
20230208140555 41 309 4.0 12.0 0.00 0.09 0.03 58 1022.0
20230208140100 40 259 5.0 12.0 0.00 0.09 0.03 59 1022.0
20230208135546 40 297 5.0 11.0 0.00 0.09 0.03 60 1021.9
20230208135048 40 307 3.0 13.0 0.00 0.09 0.03 60 1021.9
20230208134542 40 293 5.0 10.0 0.00 0.09 0.03 61 1022.0
20230208134035 40 304 4.0 10.0 0.00 0.09 0.03 63 1021.9
20230208133533 40 310 3.0 13.0 0.00 0.09 0.03 65 1022.0
20230208133029 39 305 7.0 14.0 0.00 0.09 0.03 65 1021.9
20230208132524 39 5 5.0 16.0 0.00 0.09 0.03 67 1022.0
20230208132023 39 291 6.0 13.0 0.00 0.09 0.03 68 1021.9
20230208131523 39 200 6.0 15.0 0.00 0.09 0.03 68 1021.8
20230208131016 39 90 8.0 15.0 0.00 0.09 0.03 68 1021.8
20230208130514 39 293 7.0 21.0 0.00 0.09 0.03 69 1021.7
20230208130107 39 286 7.0 21.0 0.00 0.09 0.03 70 1021.5
20230208125607 39 294 8.0 18.0 0.00 0.09 0.03 72 1021.4
20230208125006 39 248 6.0 13.0 0.00 0.09 0.03 74 1021.3
20230208124559 38 315 5.0 13.0 0.00 0.09 0.03 75 1021.2
20230208124056 38 237 5.0 15.0 0.00 0.09 0.03 75 1021.1
20230208123555 38 302 5.0 15.0 0.00 0.09 0.03 76 1021.0
20230208123048 38 348 5.0 10.0 0.00 0.09 0.03 76 1020.8
20230208122547 38 294 4.0 12.0 0.00 0.09 0.03 76 1020.8
20230208122046 38 266 5.0 12.0 0.00 0.09 0.03 76 1020.9
20230208121537 38 299 6.0 11.0 0.00 0.09 0.03 76 1020.8
20230208121035 38 265 3.0 12.0 0.00 0.09 0.03 75 1020.6
20230208120534 38 292 7.0 18.0 0.00 0.09 0.03 75 1020.5
20230208120027 38 320 8.0 18.0 0.00 0.09 0.03 75 1020.4
20230208115525 38 285 5.0 10.0 0.00 0.09 0.03 76 1020.1
20230208115026 38 260 4.0 9.0 0.00 0.09 0.03 75 1020.0
20230208114518 38 315 2.0 9.0 0.00 0.09 0.03 75 1019.8
20230208114018 38 254 2.0 12.0 0.00 0.09 0.03 75 1019.8
20230208113518 38 241 5.0 12.0 0.00 0.09 0.03 75 1019.7
20230208113010 38 232 4.0 12.0 0.00 0.09 0.03 75 1019.6
20230208112514 38 279 3.0 8.0 0.00 0.09 0.03 75 1019.7
20230208112010 38 273 3.0 8.0 0.00 0.09 0.03 74 1019.6
20230208111502 38 284 3.0 9.0 0.00 0.09 0.03 74 1019.6
20230208111002 38 302 4.0 16.0 0.01 0.09 0.03 74 1019.4
20230208110502 38 263 3.0 16.0 0.01 0.09 0.03 75 1019.4
20230208110058 38 263 4.0 10.0 0.01 0.09 0.03 75 1019.4
20230208105553 38 290 4.0 10.0 0.01 0.09 0.03 75 1019.3
20230208105053 38 288 3.0 13.0 0.01 0.09 0.03 75 1019.2
20230208104547 38 263 3.0 13.0 0.01 0.09 0.03 75 1019.1
20230208104046 38 296 3.0 8.0 0.01 0.09 0.03 76 1019.0
20230208103545 38 270 2.0 10.0 0.01 0.09 0.03 76 1019.0
20230208103039 39 296 4.0 11.0 0.01 0.09 0.03 76 1019.0
20230208102540 39 241 4.0 11.0 0.01 0.09 0.03 77 1018.9
20230208102038 39 289 3.0 16.0 0.01 0.09 0.03 77 1018.9
20230208101524 39 269 4.0 8.0 0.01 0.09 0.03 77 1018.9
20230208101024 39 347 4.0 10.0 0.00 0.08 0.02 77 1018.8
20230208100526 39 260 3.0 10.0 0.01 0.08 0.02 78 1018.8
20230208100007 39 296 2.0 11.0 0.01 0.08 0.02 78 1018.7
20230208095536 39 307 4.0 11.0 0.01 0.08 0.02 78 1018.8
20230208095005 39 281 2.0 8.0 0.01 0.08 0.02 78 1018.8
20230208094601 38 263 2.0 10.0 0.01 0.08 0.02 79 1018.6
20230208094057 38 335 6.0 10.0 0.01 0.08 0.02 79 1018.5
20230208093556 38 285 3.0 8.0 0.01 0.08 0.02 79 1018.5
20230208093049 38 233 2.0 6.0 0.01 0.08 0.02 79 1018.4
20230208092549 38 263 1.0 6.0 0.01 0.08 0.02 79 1018.5
20230208092048 37 272 1.0 4.0 0.01 0.08 0.02 80 1018.4
20230208091540 37 276 1.0 3.0 0.01 0.08 0.02 81 1018.4
20230208091040 36 237 1.0 3.0 0.01 0.08 0.02 81 1018.4
20230208090539 36 250 0.0 4.0 0.00 0.07 0.01 82 1018.3
20230208090031 36 264 1.0 4.0 0.00 0.07 0.01 82 1018.2
20230208085529 36 182 0.0 4.0 0.00 0.07 0.01 81 1018.3
20230208085026 35 155 1.0 4.0 0.00 0.07 0.01 81 1018.3
20230208084520 35 132 2.0 5.0 0.00 0.07 0.01 81 1018.2
20230208084020 35 128 2.0 5.0 0.00 0.07 0.01 81 1018.3
20230208083520 35 145 2.0 5.0 0.00 0.07 0.01 81 1018.3
20230208083011 35 128 1.0 4.0 0.00 0.07 0.01 80 1018.2
20230208082511 35 155 2.0 4.0 0.00 0.07 0.01 80 1018.1
20230208082011 35 199 0.0 4.0 0.00 0.07 0.01 81 1018.1
20230208081557 35 88 2.0 4.0 0.00 0.07 0.01 80 1018.1
20230208081055 35 161 1.0 4.0 0.00 0.07 0.01 80 1018.2
20230208080554 35 107 1.0 3.0 0.00 0.07 0.01 80 1018.1
20230208080056 35 151 1.0 5.0 0.00 0.07 0.01 80 1018.1
20230208075546 35 134 1.0 5.0 0.00 0.07 0.01 80 1017.9
20230208075048 35 169 1.0 5.0 0.00 0.07 0.01 79 1018.0
20230208074538 35 196 1.0 4.0 0.00 0.07 0.01 80 1017.9
20230208074038 35 194 1.0 6.0 0.00 0.07 0.01 79 1017.9
20230208073539 35 205 2.0 6.0 0.00 0.07 0.01 80 1017.9
20230208073029 35 184 1.0 5.0 0.00 0.07 0.01 80 1017.8
20230208072526 35 160 2.0 5.0 0.00 0.07 0.01 79 1017.8
20230208072025 35 208 0.0 5.0 0.00 0.07 0.01 80 1017.8
20230208071517 35 170 2.0 7.0 0.00 0.07 0.01 80 1017.8
20230208071015 35 198 2.0 7.0 0.00 0.07 0.01 79 1017.8
20230208070514 35 163 4.0 6.0 0.00 0.07 0.01 79 1017.8
20230208070004 35 173 2.0 6.0 0.00 0.07 0.01 79 1017.8
20230208065502 35 195 2.0 5.0 0.00 0.07 0.01 78 1017.7
20230208065001 35 231 1.0 5.0 0.00 0.07 0.01 79 1017.8
20230208064602 35 126 1.0 5.0 0.00 0.07 0.01 78 1017.6
20230208064058 35 153 1.0 3.0 0.01 0.07 0.01 78 1017.7
20230208063554 35 190 1.0 5.0 0.01 0.07 0.01 78 1017.9
20230208063055 35 148 0.0 4.0 0.01 0.07 0.01 78 1017.7
20230208062551 35 167 1.0 4.0 0.01 0.07 0.01 78 1017.8
20230208062047 35 178 1.0 4.0 0.01 0.07 0.01 78 1017.8
20230208061541 35 224 0.0 3.0 0.01 0.07 0.01 78 1017.8
20230208061041 35 190 1.0 4.0 0.01 0.07 0.01 78 1017.8
20230208060540 35 215 1.0 4.0 0.01 0.07 0.01 77 1017.8
20230208060026 35 157 2.0 4.0 0.01 0.07 0.01 77 1017.7
20230208055528 35 227 0.0 3.0 0.01 0.07 0.01 77 1017.8
20230208055028 35 204 1.0 3.0 0.01 0.07 0.01 77 1017.8
20230208054519 35 237 0.0 3.0 0.01 0.07 0.01 77 1017.8
20230208054004 35 172 1.0 5.0 0.00 0.06 0.00 77 1017.7
20230208053504 35 142 2.0 5.0 0.00 0.06 0.00 77 1017.8
20230208053002 35 169 2.0 6.0 0.00 0.06 0.00 76 1017.6
20230208052503 35 147 3.0 7.0 0.00 0.06 0.00 76 1017.8
20230208052001 35 188 2.0 5.0 0.00 0.06 0.00 77 1017.8
20230208051601 35 123 2.0 7.0 0.00 0.06 0.00 76 1017.6
20230208051053 35 167 4.0 7.0 0.00 0.06 0.00 76 1017.5
20230208050555 35 180 2.0 6.0 0.00 0.06 0.00 76 1017.5
20230208050045 35 141 3.0 9.0 0.00 0.06 0.00 76 1017.5
20230208045545 35 173 3.0 8.0 0.00 0.06 0.06 76 1017.5
20230208045045 35 196 2.0 7.0 0.00 0.06 0.06 75 1017.4
20230208044534 35 144 4.0 7.0 0.00 0.06 0.06 75 1017.5
20230208044032 35 187 1.0 7.0 0.00 0.06 0.06 75 1017.6
20230208043532 35 172 1.0 8.0 0.00 0.06 0.06 75 1017.6
20230208043038 35 178 3.0 9.0 0.00 0.06 0.06 75 1017.4
20230208042527 35 119 1.0 8.0 0.00 0.06 0.06 75 1017.5
20230208042029 35 168 4.0 8.0 0.00 0.06 0.06 74 1017.6
20230208041553 35 182 2.0 6.0 0.00 0.06 0.06 74 1017.5
20230208041021 35 197 1.0 4.0 0.00 0.06 0.06 74 1017.6
20230208040519 35 157 1.0 7.0 0.00 0.06 0.06 74 1017.6
20230208040013 35 149 1.0 7.0 0.00 0.06 0.06 73 1017.7
20230208035512 35 235 3.0 5.0 0.00 0.06 0.06 73 1017.8
20230208035012 35 170 3.0 7.0 0.00 0.06 0.06 73 1017.7
20230208034506 35 181 1.0 4.0 0.00 0.06 0.06 74 1017.7
20230208034006 35 228 1.0 6.0 0.00 0.06 0.06 74 1017.9
20230208033506 35 158 0.0 9.0 0.00 0.06 0.06 73 1017.8
20230208033100 35 188 2.0 9.0 0.00 0.06 0.06 73 1017.8
20230208032600 35 228 3.0 9.0 0.00 0.06 0.06 73 1017.7
20230208032100 35 158 4.0 9.0 0.00 0.06 0.06 73 1017.6
20230208031604 35 114 2.0 9.0 0.00 0.06 0.06 74 1017.7
20230208031053 35 192 3.0 9.0 0.00 0.06 0.06 74 1017.8
20230208030553 35 199 3.0 8.0 0.00 0.06 0.06 74 1017.8
20230208030050 34 142 3.0 10.0 0.00 0.06 0.06 75 1017.7
20230208025549 34 164 3.0 11.0 0.00 0.06 0.06 75 1017.7
20230208025048 34 157 7.0 11.0 0.00 0.06 0.06 75 1017.8
20230208024557 34 180 3.0 12.0 0.00 0.06 0.06 75 1018.0
20230208024042 34 161 4.0 14.0 0.00 0.06 0.06 75 1018.0
20230208023544 34 178 7.0 14.0 0.00 0.06 0.06 74 1018.2
20230208023026 34 61 5.0 14.0 0.00 0.06 0.06 74 1018.3
20230208022527 34 171 7.0 14.0 0.00 0.06 0.06 75 1018.3
20230208022025 34 160 7.0 14.0 0.00 0.06 0.06 74 1018.1
20230208021521 34 159 6.0 14.0 0.00 0.06 0.06 74 1018.4
20230208021012 34 185 5.0 15.0 0.00 0.06 0.06 74 1018.6
20230208020512 34 157 5.0 15.0 0.00 0.06 0.06 74 1018.7
20230208020059 34 207 6.0 14.0 0.00 0.06 0.06 74 1018.7
20230208015600 34 119 6.0 16.0 0.01 0.06 0.06 74 1018.8
20230208015055 34 161 8.0 16.0 0.01 0.06 0.06 74 1018.8
20230208014542 34 161 8.0 16.0 0.01 0.06 0.06 74 1018.6
20230208014043 34 146 7.0 18.0 0.01 0.06 0.06 74 1018.7
20230208013541 34 157 8.0 18.0 0.01 0.06 0.06 74 1018.8
20230208013011 34 133 8.0 18.0 0.01 0.06 0.06 74 1018.7
20230208012511 34 169 6.0 18.0 0.01 0.06 0.06 74 1018.7
20230208012010 34 109 6.0 17.0 0.01 0.06 0.06 73 1018.6
20230208011555 34 167 8.0 17.0 0.01 0.06 0.06 73 1018.7
20230208011054 34 137 7.0 15.0 0.02 0.06 0.06 73 1018.8
20230208010554 34 159 7.0 17.0 0.02 0.06 0.06 73 1018.6
20230208010056 34 148 8.0 18.0 0.01 0.05 0.05 72 1018.5
20230208005547 35 317 9.0 18.0 0.01 0.05 0.05 70 1018.7
20230208005047 35 126 7.0 14.0 0.01 0.05 0.05 69 1019.1
20230208004548 35 167 6.0 12.0 0.01 0.05 0.05 69 1019.3
20230208004038 35 178 7.0 12.0 0.02 0.05 0.05 68 1019.6
20230208003539 35 181 4.0 11.0 0.02 0.05 0.05 68 1019.8
20230208003036 35 158 4.0 9.0 0.02 0.05 0.05 68 1019.8
20230208002530 35 185 4.0 10.0 0.02 0.05 0.05 68 1019.6
20230208002126 35 162 2.0 10.0 0.02 0.05 0.05 68 1019.6
20230208001533 35 82 2.0 8.0 0.02 0.05 0.05 68 1019.5
20230208001019 35 164 3.0 8.0 0.01 0.04 0.04 67 1019.8
20230208000521 35 181 3.0 8.0 0.01 0.04 0.04 67 1019.9
20230208000124 35 171 3.0 8.0 0.02 0.04 0.04 66 1019.9
20230207235559 35 148 5.0 8.0 0.03 0.04 0.04 65 1020.0
20230207235059 35 146 3.0 8.0 0.04 0.04 0.04 65 1019.9
20230207234553 35 137 5.0 8.0 0.04 0.04 0.04 63 1020.0
20230207234053 35 156 2.0 8.0 0.03 0.03 0.03 63 1020.0
20230207233554 35 117 3.0 9.0 0.03 0.03 0.03 62 1019.8
20230207233046 35 146 5.0 14.0 0.03 0.03 0.03 62 1019.6
20230207232548 35 162 7.0 14.0 0.03 0.03 0.03 60 1019.4
20230207232048 35 169 4.0 12.0 0.03 0.03 0.03 62 1019.5
20230207231546 35 154 2.0 10.0 0.03 0.03 0.03 63 1019.3
20230207231038 35 154 4.0 12.0 0.03 0.03 0.03 59 1019.5
20230207230540 36 142 4.0 11.0 0.02 0.02 0.02 59 1019.5
20230207230032 36 164 5.0 10.0 0.02 0.02 0.02 55 1019.7
20230207225528 37 153 4.0 12.0 0.01 0.01 0.01 50 1019.9
20230207225028 37 86 5.0 14.0 0.00 0.00 0.00 46 1019.7
20230207224517 37 224 6.0 14.0 0.00 0.00 0.00 43 1019.8
20230207224019 37 286 6.0 18.0 0.00 0.00 0.00 43 1019.9
20230207223517 37 192 5.0 23.0 0.00 0.00 0.00 44 1018.8
20230207223011 37 171 10.0 23.0 0.00 0.00 0.00 43 1018.1
20230207222512 37 161 12.0 21.0 0.00 0.00 0.00 43 1018.1
20230207222010 37 204 9.0 18.0 0.00 0.00 0.00 43 1018.4
20230207221503 37 163 9.0 22.0 0.00 0.00 0.00 43 1018.6
20230207221002 37 180 11.0 22.0 0.00 0.00 0.00 42 1018.8
20230207220502 37 121 9.0 18.0 0.00 0.00 0.00 42 1019.1
20230207220101 37 154 12.0 18.0 0.00 0.00 0.00 42 1019.4
20230207215558 37 138 6.0 21.0 0.00 0.00 0.00 42 1019.5
20230207215054 37 116 11.0 21.0 0.00 0.00 0.00 42 1019.1
20230207214548 37 51 9.0 19.0 0.00 0.00 0.00 42 1019.1
20230207214048 37 162 8.0 19.0 0.00 0.00 0.00 41 1019.2
20230207213548 37 212 6.0 15.0 0.00 0.00 0.00 42 1019.4
20230207213046 37 180 8.0 20.0 0.00 0.00 0.00 42 1019.3
20230207212543 37 155 9.0 21.0 0.00 0.00 0.00 42 1019.3
20230207212041 37 204 12.0 20.0 0.00 0.00 0.00 42 1019.2
20230207211536 37 158 8.0 20.0 0.00 0.00 0.00 42 1019.4
20230207211035 37 152 10.0 20.0 0.00 0.00 0.00 42 1019.7
20230207210531 37 148 6.0 15.0 0.00 0.00 0.00 42 1019.9
20230207210025 37 142 6.0 19.0 0.00 0.00 0.00 42 1019.6
20230207205524 37 155 8.0 23.0 0.00 0.00 0.00 41 1019.4
20230207205024 37 148 10.0 23.0 0.00 0.00 0.00 41 1019.2
20230207204517 37 146 7.0 17.0 0.00 0.00 0.00 40 1020.2
20230207204017 37 257 9.0 14.0 0.00 0.00 0.00 39 1020.7
20230207203516 37 184 5.0 18.0 0.00 0.00 0.00 40 1020.9
20230207203058 37 133 9.0 18.0 0.00 0.00 0.00 39 1020.9
20230207202557 37 164 9.0 17.0 0.00 0.00 0.00 39 1021.1
20230207202057 37 193 9.0 17.0 0.00 0.00 0.00 38 1021.4
20230207201551 37 188 6.0 17.0 0.00 0.00 0.00 38 1021.3
20230207201051 37 179 6.0 19.0 0.00 0.00 0.00 38 1021.2
20230207200552 37 138 8.0 19.0 0.00 0.00 0.00 38 1020.9
20230207200044 38 180 7.0 14.0 0.00 0.00 0.00 38 1021.2
20230207195543 38 169 5.0 19.0 0.00 0.00 0.00 38 1020.8
20230207195042 37 104 11.0 19.0 0.00 0.00 0.00 38 1020.4
20230207194537 37 196 9.0 18.0 0.00 0.00 0.00 38 1020.2
20230207194036 37 163 11.0 25.0 0.00 0.00 0.00 38 1020.0
20230207193535 37 171 12.0 26.0 0.00 0.00 0.00 37 1019.9
20230207193027 37 172 7.0 21.0 0.00 0.00 0.00 37 1020.1
20230207192527 37 232 9.0 21.0 0.00 0.00 0.00 37 1020.3
20230207192027 37 153 9.0 18.0 0.00 0.00 0.00 37 1020.3
20230207191530 37 182 9.0 23.0 0.00 0.00 0.00 38 1020.5
20230207191021 37 171 7.0 21.0 0.00 0.00 0.00 38 1020.3
20230207190523 37 190 11.0 21.0 0.00 0.00 0.00 38 1020.3
20230207190014 37 175 10.0 19.0 0.00 0.00 0.00 37 1020.6
20230207185513 37 131 6.0 15.0 0.00 0.00 0.00 38 1020.5
20230207185011 37 213 5.0 22.0 0.00 0.00 0.00 38 1020.8
20230207184601 37 155 11.0 22.0 0.00 0.00 0.00 37 1021.1
20230207184055 37 182 12.0 23.0 0.00 0.00 0.00 37 1021.5
20230207183553 37 223 11.0 23.0 0.00 0.00 0.00 38 1021.8
20230207183049 36 182 9.0 26.0 0.00 0.00 0.00 38 1022.1
20230207182545 37 178 9.0 26.0 0.00 0.00 0.00 38 1022.6
20230207182046 36 159 11.0 24.0 0.00 0.00 0.00 38 1022.8
20230207181532 36 192 11.0 24.0 0.00 0.00 0.00 38 1022.9
20230207181029 36 161 12.0 21.0 0.00 0.00 0.00 38 1023.0
20230207180529 36 200 10.0 18.0 0.00 0.00 0.00 39 1023.0
20230207180020 35 157 8.0 18.0 0.00 0.00 0.00 39 1022.9
20230207175519 35 341 5.0 15.0 0.00 0.00 0.00 40 1023.2
20230207175017 35 159 7.0 13.0 0.00 0.00 0.00 40 1023.3
20230207174512 34 179 7.0 17.0 0.00 0.00 0.00 40 1023.4
20230207174014 34 148 9.0 17.0 0.00 0.00 0.00 39 1023.4
20230207173512 35 123 6.0 13.0 0.00 0.00 0.00 39 1023.5
20230207173003 36 181 5.0 12.0 0.00 0.00 0.00 38 1023.8
20230207172502 35 129 3.0 13.0 0.00 0.00 0.00 40 1024.1
20230207172000 35 355 2.0 13.0 0.00 0.00 0.00 42 1024.2
20230207171604 33 111 5.0 15.0 0.00 0.00 0.00 43 1024.2
20230207171053 33 115 6.0 15.0 0.00 0.00 0.00 42 1024.5
20230207170552 33 111 3.0 10.0 0.00 0.00 0.00 43 1024.8
20230207170028 32 158 5.0 15.0 0.00 0.00 0.00 44 1025.0
20230207165529 32 183 7.0 18.0 0.00 0.00 0.00 44 1024.9
20230207165027 32 143 8.0 18.0 0.00 0.00 0.00 44 1025.2
20230207164523 32 166 4.0 15.0 0.00 0.00 0.00 46 1025.3
20230207164023 31 78 5.0 9.0 0.00 0.00 0.00 48 1025.3
20230207163521 31 163 4.0 9.0 0.00 0.00 0.00 49 1025.8
20230207163027 30 89 5.0 11.0 0.00 0.00 0.00 50 1026.3
20230207162530 30 143 5.0 14.0 0.00 0.00 0.00 51 1026.6
20230207162025 29 191 7.0 14.0 0.00 0.00 0.00 52 1026.8
20230207161602 29 158 4.0 10.0 0.00 0.00 0.00 52 1027.0
20230207161036 29 165 5.0 11.0 0.00 0.00 0.00 52 1027.2
20230207160536 29 198 5.0 10.0 0.00 0.00 0.00 52 1027.1
20230207160034 29 193 3.0 9.0 0.00 0.00 0.00 53 1027.1
20230207155527 27 167 4.0 9.0 0.00 0.00 0.00 55 1027.1
20230207155029 27 116 3.0 9.0 0.00 0.00 0.00 56 1027.0
20230207154518 26 93 3.0 7.0 0.00 0.00 0.00 58 1027.2
20230207154016 26 134 2.0 6.0 0.00 0.00 0.00 59 1027.3
20230207153514 25 151 2.0 6.0 0.00 0.00 0.00 61 1027.2
20230207153056 24 181 3.0 6.0 0.00 0.00 0.00 62 1027.3
20230207152554 24 76 3.0 4.0 0.00 0.00 0.00 62 1027.5
20230207152053 24 153 1.0 3.0 0.00 0.00 0.00 62 1027.7
20230207151553 24 75 1.0 3.0 0.00 0.00 0.00 62 1027.9
20230207151045 24 174 1.0 3.0 0.00 0.00 0.00 63 1028.0
20230207150544 24 169 1.0 3.0 0.00 0.00 0.00 65 1028.1
20230207150041 23 126 0.0 6.0 0.00 0.00 0.00 65 1028.2
20230207145537 22 192 2.0 7.0 0.00 0.00 0.00 65 1028.1
20230207145038 22 194 3.0 6.0 0.00 0.00 0.00 66 1028.0
20230207144529 23 229 1.0 4.0 0.00 0.00 0.00 66 1028.4